Flag for Madagascar Weather past 2 weeks in Antsirabe, Madagascar

66 °F

Passing clouds.

Feels Like: 66 °F
Forecast: 59 / 81 °F
Wind: No wind

Location: Antananarivo / Ivato

Current Time: Nov 29, 2015 at 1:34:21 AM

Latest Report: Nov 29, 2015 at 1:00 AM

Visibility: N/A

Pressure: 30.21 "Hg (25.33 "Hg at 1507m altitude)

Humidity: 100%

Dew point: 66 °F

Location of AntsirabeLocation

Historic Weather in Antsirabe — Graph


Antsirabe temperature yesterday

Maximum temperature yesterday: 86 °F (at 2:30 PM)
Minimum temperature yesterday: 63 °F (at 4:00 AM)
Average temperature yesterday: 72 °F

Past Weeks' High & Low Weather Summary

High91 °F (Nov 16, 1:00 PM)100% (Nov 14, 12:30 AM)30.24 "Hg (Nov 14, 12:30 AM)
Low55 °F (Nov 14, 5:30 AM)23% (Nov 16, 1:00 PM)29.95 "Hg (Nov 24, 2:00 PM)
Average72 °F81%30.11 "Hg
* Reported Midnight between Nov 13 and Nov 14 — Midnight between Nov 28 and Nov 29, Antsirabe, Weather by CustomWeather, © 2015

Note: Actual official high and low records may vary slightly from our data, if they occured in-between our weather recording intervals... More about our weather records


Antsirabe weather history for previous 24 hours

Time TempWeatherWind HumidityBarometerVisibility
12:00 AM
Sun, Nov 29
66 °FPassing clouds.No wind100%30.21 "HgN/A
11:30 PM
Sat, Nov 28
68 °FPassing clouds.No wind100%30.24 "HgN/A
11:00 PM66 °FPassing clouds.No wind100%30.24 "HgN/A
10:30 PM68 °FThunderstorms. Passing clouds.No wind100%30.24 "HgN/A
10:00 PM68 °FThunderstorms. Passing clouds.No wind100%30.24 "HgN/A
9:30 PM68 °FThunderstorms. Passing clouds.No wind100%30.24 "HgN/A
9:00 PM66 °FThunderstorms. Passing clouds.No wind100%30.24 "HgN/A
8:30 PM66 °FThunderstorms. Passing clouds.No wind100%30.21 "HgN/A
8:00 PM66 °FThunderstorms. Passing clouds.No wind100%30.21 "HgN/A
7:30 PM66 °FThunderstorms. Passing clouds.No wind100%30.21 "HgN/A
7:00 PM66 °FThunderstorms. Passing clouds.1 mph100%30.18 "HgN/A
6:30 PM66 °FThunderstorms. Passing clouds.6 mph100%30.18 "Hg4 mi
6:00 PM66 °FThunderstorms. Scattered clouds.6 mph100%30.18 "Hg4 mi
5:30 PM66 °FThunderstorms. Scattered clouds.8 mph100%30.15 "Hg5 mi
5:00 PM66 °FThunderstorms. Partly sunny.6 mph100%30.21 "Hg2 mi
4:30 PM63 °FThunderstorms. Partly sunny.5 mph100%30.21 "Hg1 mi
4:03 PM63 °FStrong thunderstorms. Partly sunny.22 mph100%30.18 "Hg2 mi
4:00 PM73 °FThunderstorms. Partly sunny.10 mph78%30.15 "Hg5 mi
3:30 PM81 °FThundershowers. Partly sunny.10 mph74%30.12 "HgN/A
3:00 PM86 °FThundershowers. Partly sunny.2 mph59%30.12 "HgN/A
2:30 PM86 °FThundershowers. Partly sunny.5 mph62%30.12 "HgN/A
2:00 PM84 °FThundershowers. Scattered clouds.3 mph62%30.12 "HgN/A
1:30 PM82 °FThundershowers. Scattered clouds.5 mph66%30.15 "HgN/A
1:00 PM84 °FScattered clouds.1 mph66%30.15 "HgN/A
12:30 PM84 °FPartly sunny.No wind74%30.18 "HgN/A
12:00 PM84 °FScattered clouds.No wind66%30.18 "HgN/A
11:30 AM82 °FPartly sunny.5 mph70%30.21 "HgN/A
11:00 AM82 °FPartly sunny.3 mph66%30.21 "HgN/A
10:30 AM77 °FScattered clouds.6 mph79%30.21 "HgN/A
10:00 AM81 °FScattered clouds.3 mph74%30.21 "HgN/A
9:30 AM79 °FScattered clouds.No wind79%30.21 "HgN/A
9:00 AM77 °FScattered clouds.No wind83%30.21 "HgN/A
8:30 AM75 °FPassing clouds.No wind89%30.21 "HgN/A
8:00 AM73 °FPassing clouds.No wind94%30.21 "HgN/A
7:30 AM72 °FPassing clouds.No wind100%30.21 "HgN/A
7:00 AM70 °FPassing clouds.No wind100%30.21 "HgN/A
6:30 AM68 °FPassing clouds.No wind100%30.18 "HgN/A
6:00 AM68 °FPassing clouds.No wind100%30.18 "HgN/A
5:30 AM64 °FPassing clouds.No wind100%30.18 "HgN/A
5:00 AM63 °FPassing clouds.No wind100%30.15 "HgN/A
4:00 AM63 °FPassing clouds.No wind100%30.15 "HgN/A
2:00 AM64 °FPassing clouds.No wind100%30.12 "HgN/A
1:30 AM64 °FPassing clouds.1 mph100%30.15 "HgN/A
1:00 AM64 °FPassing clouds.No wind100%30.15 "HgN/A
Weather by CustomWeather, © 2015

See weather overviewHow to use our weather pages